Date,TemperatureHighF,TemperatureAvgF,TemperatureLowF,DewpointHighF,DewpointAvgF,DewpointLowF,HumidityHigh,HumidityAvg,HumidityLow,PressureMaxIn,PressureMinIn,WindSpeedMaxMPH,WindSpeedAvgMPH,GustSpeedMaxMPH,PrecipitationSumIn
2012-1-1,48,43,34,47,40,33,97,90,81,30.05,29.59,12,5,24,0.05
2012-1-2,49,40,32,48,31,21,97,70,47,29.69,29.51,18,4,27,0.02
2012-1-3,32,25,14,23,12,0,71,57,46,29.98,29.68,18,6,23,0.00
2012-1-4,30,20,10,11,5,0,70,54,37,30.08,29.89,15,4,20,0.00
2012-1-5,39,29,23,26,18,10,69,62,55,29.90,29.73,10,2,22,0.00
2012-1-6,50,38,26,37,29,16,86,70,60,29.91,29.69,13,2,18,0.00
2012-1-7,61,46,32,39,35,29,91,66,44,29.87,29.62,16,3,22,0.00
2012-1-8,46,38,28,32,26,20,80,64,48,30.24,29.87,11,2,17,0.00
2012-1-9,34,31,26,25,20,17,75,64,49,30.26,29.96,5,2,15,0.00
2012-1-10,47,37,28,32,28,24,92,72,55,29.96,29.74,15,3,22,0.00
2012-1-11,46,34,27,31,27,24,87,75,54,30.10,29.92,6,1,9,0.00
2012-1-12,41,36,34,40,35,31,100,96,86,30.02,29.44,16,5,24,1.26
2012-1-13,51,35,29,48,29,18,100,80,54,29.58,29.17,26,7,44,0.02
2012-1-14,36,28,18,21,15,3,74,59,40,29.99,29.58,18,5,26,0.00
2012-1-15,21,13,7,7,2,-1,73,61,45,30.49,29.99,18,6,24,0.00
2012-1-16,33,22,9,32,9,0,96,61,35,30.56,30.10,13,3,22,0.00
2012-1-17,47,38,33,46,37,32,98,94,89,30.10,29.45,14,6,21,0.17
2012-1-18,50,35,21,46,22,8,94,60,47,30.11,29.42,23,8,40,0.00
2012-1-19,35,24,13,27,15,6,95,69,51,30.25,29.95,7,1,14,0.00
2012-1-20,32,26,19,28,18,10,96,73,51,30.26,29.90,15,2,22,0.13
2012-1-21,21,19,15,19,15,10,94,83,64,30.32,30.07,13,3,17,0.00
2012-1-22,35,23,13,26,18,8,86,80,64,30.55,30.32,12,3,18,0.20
2012-1-23,45,36,27,45,34,23,99,91,83,30.50,29.84,8,1,12,0.20
2012-1-24,58,49,39,51,44,31,100,82,62,30.02,29.83,15,5,22,0.01
2012-1-25,43,37,34,31,28,27,79,71,59,30.18,30.02,13,3,20,0.00
2012-1-26,44,36,32,34,31,28,96,83,65,30.19,30.02,10,1,14,0.05
2012-1-27,40,36,34,40,35,33,99,95,80,30.02,29.26,19,2,30,0.93
2012-1-28,47,40,31,34,32,27,89,74,55,29.97,29.60,20,4,30,0.00
2012-1-29,44,37,33,34,22,18,83,54,38,30.06,29.86,14,6,21,0.00
2012-1-30,41,34,26,28,21,15,79,60,40,30.26,29.89,20,5,31,0.00
2012-1-31,54,37,28,36,27,21,82,69,48,30.26,29.99,5,0,7,0.00
2012-2-1,61,46,31,46,38,28,91,74,58,29.99,29.75,17,4,25,0.00
2012-2-2,42,37,31,35,31,24,92,81,71,30.16,29.95,9,2,15,0.00
2012-2-3,41,32,24,24,18,14,74,58,37,30.36,30.16,15,4,20,0.00
2012-2-4,46,36,28,30,23,13,77,61,45,30.25,30.08,18,3,22,0.00
2012-2-5,39,29,20,18,14,12,74,55,37,30.14,30.05,8,2,15,0.00
2012-2-6,51,38,25,29,24,17,75,59,39,30.07,29.83,15,5,22,0.00
2012-2-7,45,38,30,32,28,20,79,66,54,30.20,29.86,10,3,15,0.00
2012-2-8,38,30,20,21,16,12,77,56,36,30.29,30.06,8,1,12,0.00
2012-2-9,45,37,32,22,18,16,56,46,37,30.07,29.97,10,2,16,0.00
2012-2-10,50,38,26,35,25,18,84,59,39,30.08,29.86,13,4,25,0.00
2012-2-11,40,34,29,34,30,19,96,83,61,29.86,29.50,18,3,24,0.04
2012-2-12,30,22,16,19,7,0,64,51,41,29.86,29.53,21,7,37,0.00
2012-2-13,43,29,16,23,17,4,75,60,42,29.96,29.79,17,4,27,0.00
2012-2-14,43,33,26,25,20,17,77,59,36,30.08,29.96,9,1,13,0.00
2012-2-15,46,40,34,40,35,26,95,85,70,30.21,30.06,6,1,11,0.01
2012-2-16,47,38,31,37,33,28,96,83,61,30.26,30.02,8,2,12,0.09
2012-2-17,54,42,32,44,34,24,98,77,50,30.02,29.83,13,4,20,0.03
2012-2-18,49,39,32,28,26,24,81,63,43,29.95,29.81,16,4,21,0.00
2012-2-19,49,37,29,30,24,19,87,62,38,30.03,29.94,11,2,15,0.00
2012-2-20,43,32,26,20,17,12,72,54,31,30.27,29.97,22,5,27,0.00
2012-2-21,45,34,23,37,24,16,92,66,41,30.31,29.83,12,4,20,0.00
2012-2-22,58,46,36,41,35,29,96,71,43,29.83,29.51,15,4,21,0.00
2012-2-23,55,46,34,46,37,26,95,73,47,29.77,29.33,18,4,29,0.00
2012-2-24,37,36,32,36,33,26,96,90,73,29.77,29.58,10,1,10,0.03
2012-2-25,42,36,31,37,28,21,98,75,53,29.77,29.20,27,10,45,0.02
2012-2-26,42,32,26,21,13,10,67,48,29,30.41,29.77,19,6,29,0.00
2012-2-27,49,38,23,37,26,12,79,64,50,30.43,29.99,14,5,26,0.00
2012-2-28,50,40,32,36,25,18,83,55,37,30.37,30.01,21,5,35,0.00
2012-2-29,38,33,31,33,26,18,98,76,50,30.36,29.88,4,0,7,0.04
2012-3-1,35,34,24,35,33,23,100,98,94,29.99,29.71,16,6,22,0.05
2012-3-2,32,25,24,29,23,23,95,94,92,30.14,29.99,12,2,16,0.02
2012-3-4,42,37,32,28,25,23,72,62,50,29.65,29.50,8,1,12,0.31
2012-3-5,39,31,24,24,16,10,73,55,37,30.28,29.62,16,6,24,0.02
2012-3-6,40,29,18,18,12,9,70,51,31,30.57,30.28,12,3,15,0.00
2012-3-7,60,45,29,43,34,18,84,65,43,30.56,30.23,17,7,28,0.00
2012-3-8,67,57,49,52,49,43,86,75,54,30.23,29.69,25,13,35,0.00
2012-3-9,59,42,34,52,29,21,89,63,40,30.12,29.68,18,5,35,0.05
2012-3-10,40,33,29,27,22,18,81,65,54,30.50,30.12,12,3,22,0.00
2012-3-11,58,43,29,32,28,24,86,58,36,30.49,30.25,18,5,24,0.00
2012-3-12,74,57,38,42,35,27,76,46,25,30.27,30.09,11,2,16,0.00
2012-3-13,70,58,48,57,50,39,96,76,52,30.09,29.85,13,4,23,0.08
2012-3-14,69,50,40,53,45,38,100,86,36,30.23,29.92,13,2,17,0.00
2012-3-15,54,42,38,42,38,34,95,85,62,30.35,30.22,7,1,12,0.00
2012-3-16,46,41,34,45,38,32,97,90,83,30.33,30.08,8,2,10,0.01
2012-3-17,56,48,42,47,44,40,98,87,70,30.35,30.14,9,1,14,0.00
2012-3-18,73,54,40,55,46,39,96,77,49,30.32,30.13,14,4,18,0.01
2012-3-19,83,62,50,59,51,47,94,70,36,30.21,30.10,11,2,16,0.00
2012-3-20,80,62,43,58,52,42,96,71,45,30.29,30.20,10,2,16,0.00
2012-3-21,76,64,54,63,58,54,99,83,58,30.33,30.21,11,5,18,0.00
2012-3-22,82,70,58,62,59,55,95,69,42,30.24,29.98,11,5,16,0.00
2012-3-23,77,67,59,57,47,33,81,52,29,30.10,29.95,13,3,21,0.00
2012-3-24,62,54,48,38,32,26,61,44,33,30.12,30.01,9,2,13,0.00
2012-3-25,49,45,42,42,39,33,94,79,57,30.02,29.67,7,1,12,0.01
2012-3-26,42,42,41,40,40,39,95,94,93,29.68,29.67,3,0,5,0.00
2012-3-27,38,37,35,13,10,7,39,32,27,30.16,30.12,6,0,6,0.00
2012-3-28,51,44,34,46,32,12,92,66,36,30.13,29.52,17,3,21,0.07
2012-3-29,52,45,41,47,38,30,93,75,61,29.88,29.49,16,6,25,0.01
2012-3-30,53,44,35,31,25,16,78,50,27,30.01,29.88,16,4,24,0.00
2012-3-31,42,38,32,40,34,28,98,87,58,30.01,29.87,8,1,13,0.14
2012-4-1,52,40,29,41,35,28,100,84,54,29.87,29.59,12,2,18,0.10
2012-4-2,54,44,38,42,32,18,98,68,32,29.79,29.55,18,7,27,0.04
2012-4-3,59,45,32,28,20,15,55,38,24,29.82,29.70,16,5,24,0.00
2012-4-4,65,51,42,40,30,22,89,48,29,29.71,29.44,24,5,38,0.01
2012-4-5,53,44,38,40,33,26,89,66,43,29.88,29.58,16,4,23,0.00
2012-4-6,54,43,33,34,26,21,74,52,35,29.96,29.84,14,4,21,0.00
2012-4-7,59,45,35,33,26,20,63,48,35,29.98,29.88,17,4,23,0.00
2012-4-8,54,46,40,32,30,28,67,54,42,29.97,29.57,15,3,23,0.00
2012-4-9,58,50,45,37,35,29,70,57,43,29.60,29.48,21,8,30,0.00
2012-4-15,73,68,65,58,58,57,75,69,57,29.97,29.88,10,3,26,0.00
2012-4-16,90,72,57,65,59,55,99,68,34,29.98,29.87,18,4,26,0.02
2012-4-17,83,69,55,59,47,33,95,51,22,30.09,29.86,16,2,22,0.00
2012-4-18,66,55,48,45,38,32,86,54,38,30.20,30.08,5,0,11,0.00
2012-4-19,73,57,45,50,45,38,94,67,28,30.10,29.94,10,1,18,0.00
2012-4-20,76,60,48,54,48,44,89,67,36,30.00,29.88,13,3,25,0.00
2012-4-21,76,63,54,59,56,34,99,79,54,30.10,29.68,17,4,34,0.00
2012-4-22,62,52,42,60,50,42,99,95,89,29.77,29.60,11,2,27,1.06
2012-4-23,61,50,42,59,49,42,100,94,83,29.60,29.28,17,6,24,2.38
2012-4-24,56,49,44,44,38,33,91,67,45,29.66,29.35,20,8,30,0.00
2012-4-25,61,49,40,42,38,32,97,69,38,29.85,29.66,16,3,24,0.00
2012-4-26,66,51,38,53,41,32,94,71,39,29.92,29.52,12,3,20,0.01
2012-4-27,57,49,38,54,38,26,98,68,46,29.97,29.47,22,9,32,0.00
2012-4-28,59,47,33,32,26,23,79,47,26,30.10,29.97,18,5,26,0.00
2012-4-29,60,49,35,30,24,16,71,39,23,30.10,29.98,18,4,26,0.00
2012-4-30,66,53,39,38,28,18,62,39,28,30.30,30.10,13,3,18,28.64
2012-5-1,50,47,45,49,44,35,99,90,57,30.19,30.00,12,2,18,3.42
2012-5-2,45,45,45,45,45,45,99,99,99,30.07,30.07,3,3,4,0.00
2012-5-3,52,46,45,51,46,45,99,99,95,30.10,30.07,5,2,7,0.00
2012-5-4,62,54,49,60,53,49,100,97,92,30.08,29.88,11,2,15,0.00
2012-5-5,68,56,49,62,54,48,100,94,80,30.05,29.90,3,0,8,0.02
2012-5-6,68,55,46,55,50,46,100,86,62,30.10,30.03,6,0,9,0.00
2012-5-7,75,58,45,57,49,44,97,73,42,30.11,30.04,11,2,17,0.00
2012-5-8,59,58,55,55,48,48,99,69,67,30.07,29.86,10,5,17,0.26
2012-5-9,62,59,56,62,59,55,100,99,98,29.85,29.56,10,3,15,0.14
2012-5-10,64,56,52,59,49,42,100,79,60,29.62,29.36,17,6,24,0.96
2012-5-11,65,56,49,43,41,37,78,58,41,30.02,29.62,15,6,22,0.00
2012-5-12,79,67,48,49,43,34,67,44,29,30.13,30.02,15,4,22,0.00
2012-5-13,65,65,65,49,49,49,56,56,56,30.08,30.08,0,0,0,0.00
2012-5-14,70,66,62,62,52,49,84,63,56,30.14,30.08,11,1,14,0.00
2012-5-15,73,63,58,62,58,56,100,85,64,30.14,29.94,17,4,23,0.77
2012-5-16,71,65,61,67,64,60,100,95,82,29.93,29.79,10,3,20,0.06
2012-5-17,72,61,52,61,48,42,99,67,37,30.09,29.85,14,3,20,0.00
2012-5-18,74,62,54,53,47,42,77,58,41,30.23,30.09,9,1,15,0.00
2012-5-19,54,54,53,42,42,41,65,63,62,30.17,30.17,3,1,5,0.00
2012-5-20,83,67,52,60,52,42,93,62,39,30.27,30.14,10,1,16,0.00
2012-5-21,70,60,52,65,56,46,100,89,67,30.25,30.04,5,0,10,0.10
2012-5-22,64,61,58,64,61,58,100,100,100,30.04,29.79,6,0,12,0.71
2012-5-23,76,67,60,68,64,60,100,90,71,30.03,29.81,5,0,7,0.02
2012-5-24,78,67,60,67,63,60,100,87,67,30.23,30.03,12,2,17,0.00
2012-5-25,74,65,59,69,63,58,98,93,82,30.24,30.10,13,3,17,0.00
2012-5-26,85,74,67,73,68,63,97,84,59,30.10,30.01,9,3,15,0.00
2012-5-27,82,72,62,64,60,55,92,66,47,30.14,29.99,10,2,16,0.00
2012-5-28,81,70,63,70,65,62,98,83,64,30.00,29.88,10,1,14,0.00
2012-5-29,84,74,63,76,70,62,99,86,75,29.92,29.76,7,1,12,0.00
2012-5-30,83,78,66,75,71,63,91,78,69,29.76,29.67,5,0,8,0.00
2012-5-31,81,71,64,64,58,53,89,64,43,29.89,29.68,11,2,16,0.00
2012-6-1,73,64,57,56,52,48,82,66,51,30.04,29.89,8,1,15,0.00
2012-6-2,63,59,53,63,58,50,100,96,79,29.98,29.65,11,1,17,1.16
2012-6-3,71,61,54,60,57,51,100,87,64,29.67,29.61,14,4,22,0.12
2012-6-4,54,51,48,52,50,48,98,95,88,29.78,29.58,12,3,20,0.05
2012-6-5,59,53,48,54,51,48,99,92,79,29.92,29.75,7,1,13,0.07
2012-6-6,68,57,49,59,54,48,99,90,65,29.97,29.90,7,0,9,0.04
2012-6-7,73,59,51,61,56,51,100,90,58,29.95,29.87,20,0,31,0.45
2012-6-8,79,64,50,63,57,50,100,80,47,29.91,29.74,12,2,18,0.01
2012-6-9,74,67,57,63,57,49,95,73,46,29.92,29.76,12,2,17,0.10
2012-6-10,82,72,58,62,56,50,95,60,44,30.20,29.92,10,1,14,0.00
2012-6-11,75,65,55,60,56,54,95,75,52,30.27,30.19,11,3,16,0.00
2012-6-12,63,63,63,56,56,56,79,79,79,30.21,30.21,3,3,5,0.00
2012-6-13,63,63,63,56,56,56,79,79,79,30.21,30.21,3,3,5,0.00
2012-6-14,63,63,63,56,56,56,79,79,79,30.25,30.20,11,2,17,0.00
2012-6-15,76,66,58,61,56,52,83,71,56,30.30,30.23,7,1,12,0.00
2012-6-16,73,61,53,62,55,50,91,81,64,30.32,30.25,7,1,12,0.00
2012-6-17,73,61,56,60,54,52,86,79,58,30.27,30.09,4,0,21,0.00
2012-6-18,74,62,52,61,55,50,95,79,53,30.14,30.08,8,1,13,0.00
2012-6-19,71,64,54,65,60,53,98,88,76,30.14,30.02,11,4,15,0.00
2012-6-20,95,81,65,79,72,62,96,77,58,30.02,29.85,11,2,20,0.00
2012-6-21,95,84,75,77,72,69,85,67,48,29.85,29.71,10,2,15,0.00
2012-6-22,93,81,70,74,70,69,97,73,48,29.75,29.67,12,2,20,0.19
2012-6-23,87,72,63,72,65,58,98,83,47,29.91,29.73,14,2,22,0.15
2012-6-24,83,72,60,63,59,54,91,68,41,29.94,29.85,11,3,16,0.00
2012-6-25,71,67,62,66,63,60,98,87,70,29.85,29.61,12,3,21,0.15
2012-6-26,72,64,57,61,58,55,96,83,64,29.63,29.53,13,4,25,0.05
2012-6-27,77,67,57,62,57,54,93,73,54,29.70,29.56,12,3,20,0.01
2012-6-28,85,74,66,63,60,57,80,62,42,29.74,29.67,11,1,18,0.01
2012-6-29,89,76,66,77,67,54,95,75,43,29.69,29.53,10,2,16,0.01
2012-6-30,90,79,68,69,62,55,83,56,40,29.71,29.62,13,4,18,0.01
2012-7-1,90,76,69,72,68,64,96,76,48,29.81,29.71,15,3,21,0.20
2012-7-2,83,73,67,68,65,62,96,76,54,29.86,29.78,10,2,18,0.03
2012-7-3,85,76,66,62,60,57,83,61,42,29.89,29.84,10,3,15,0.00
2012-7-4,87,76,67,74,70,64,99,83,63,29.83,29.66,7,2,14,0.19
2012-7-5,84,77,70,72,68,64,93,74,57,29.84,29.64,9,3,19,0.00
2012-7-6,86,76,65,70,66,61,90,73,56,29.89,29.81,6,1,10,0.00
2012-7-7,84,77,71,74,70,66,90,79,65,29.81,29.70,9,1,15,0.00
2012-7-8,88,78,69,71,66,59,89,69,45,29.85,29.75,11,2,16,0.00
2012-7-9,83,73,64,60,57,52,73,59,41,29.94,29.85,9,1,15,0.00
2012-7-10,84,73,62,61,54,50,73,52,35,30.06,29.94,8,1,13,0.00
2012-7-11,87,77,62,67,64,60,95,66,46,30.17,30.06,6,1,12,0.00
2012-7-12,88,74,62,68,64,61,98,74,48,30.17,30.08,13,3,20,0.00
2012-7-13,87,76,67,74,66,60,85,72,58,30.17,30.12,13,4,18,0.00
2012-7-14,90,77,70,70,67,64,86,72,48,30.13,30.04,11,4,17,0.00
2012-7-15,87,78,70,75,70,65,96,76,56,30.08,29.86,9,2,16,0.02
2012-7-16,91,82,70,75,72,69,97,73,55,29.86,29.71,12,3,17,0.00
2012-7-17,92,83,74,73,71,69,86,68,53,29.76,29.66,16,4,23,0.00
2012-7-18,95,80,73,78,73,70,99,81,57,29.86,29.67,12,1,20,0.25
2012-7-19,73,69,67,72,66,62,99,90,85,29.90,29.83,9,2,12,0.00
2012-7-25,84,78,69,62,59,55,65,52,44,29.80,29.75,12,3,20,0.17
2012-7-26,82,73,67,74,66,57,97,79,65,29.76,29.56,10,2,15,0.00
2012-7-27,82,73,68,75,70,67,96,91,78,29.88,29.58,10,2,17,0.01
2012-7-28,82,72,65,71,68,64,99,89,67,29.94,29.88,4,0,10,0.00
2012-7-29,72,67,63,68,65,61,100,95,85,30.05,29.89,5,1,11,0.01
2012-7-30,82,70,59,69,64,58,99,83,63,30.10,30.05,9,2,16,0.00
2012-7-31,76,68,61,68,64,60,98,89,69,30.10,29.87,8,1,12,0.00
2012-8-1,81,72,64,74,68,63,98,90,72,29.90,29.82,15,3,20,0.01
2012-8-2,89,77,67,75,70,66,98,83,57,29.88,29.80,8,2,12,0.01
2012-8-3,92,80,69,76,72,68,98,78,49,30.07,29.88,11,3,15,0.00
2012-8-4,91,80,70,78,74,69,98,80,63,30.18,30.07,13,2,16,0.00
2012-8-5,88,80,71,77,72,70,95,79,68,30.18,29.96,17,2,28,0.00
2012-8-6,80,73,68,64,62,61,79,70,55,29.96,29.91,6,0,10,0.00
2012-8-7,84,72,59,68,63,58,95,76,52,29.99,29.92,12,1,17,0.00
2012-8-8,86,74,62,71,66,60,95,78,48,29.97,29.91,8,1,14,0.01
2012-8-9,88,77,68,74,70,66,97,83,55,29.94,29.85,10,2,16,0.00
2012-8-10,83,73,69,75,71,68,98,92,74,29.90,29.75,16,3,26,0.00
2012-8-11,84,76,68,77,72,68,99,90,74,29.89,29.79,13,3,18,0.00
2012-8-12,84,76,71,75,72,69,97,88,72,29.89,29.83,12,4,20,0.00
2012-8-13,85,75,66,70,66,64,97,77,55,29.92,29.87,10,3,16,0.00
2012-8-14,81,73,65,68,66,62,90,78,59,29.92,29.88,7,2,12,0.00
2012-8-15,83,72,64,72,68,63,99,88,65,29.91,29.81,9,1,14,0.00
2012-8-16,84,72,64,71,66,63,99,81,51,29.84,29.78,12,2,15,0.00
2012-8-17,84,76,66,70,66,61,96,74,59,29.82,29.76,14,3,20,0.00
2012-8-18,68,65,62,67,63,60,99,94,84,29.87,29.79,8,1,12,0.00
2012-8-19,74,66,59,65,59,53,88,78,64,29.93,29.86,7,1,12,0.00
2012-8-20,66,66,66,61,61,61,84,84,84,29.90,29.90,0,0,0,0.00
2012-8-21,80,70,63,65,61,57,92,74,46,30.06,29.86,8,2,14,0.00
2012-8-22,83,72,59,65,60,55,88,67,45,30.11,30.05,9,1,12,0.00
2012-8-23,86,73,63,69,64,60,92,76,51,30.12,30.06,10,2,15,0.00
2012-8-24,85,73,64,70,66,61,94,78,55,30.18,30.08,7,1,12,0.00
2012-8-25,81,72,64,69,64,59,99,80,54,30.30,30.18,6,0,9,0.00
2012-8-26,84,69,60,67,62,59,98,81,50,30.31,30.21,6,1,9,0.00
2012-8-27,84,67,56,70,62,55,96,87,61,30.22,29.96,13,2,21,0.00
2012-8-28,84,73,66,74,69,62,99,86,64,29.96,29.69,12,2,21,0.00
2012-8-29,76,66,59,62,54,48,83,66,44,29.96,29.84,10,2,20,0.00
2012-8-30,79,68,57,61,56,52,87,66,46,30.02,29.93,12,3,20,0.00
2012-8-31,86,75,63,64,60,55,76,61,46,29.96,29.81,14,6,18,0.00
2012-9-1,80,73,63,68,63,57,86,73,62,30.09,29.82,7,1,12,0.00
2012-9-2,80,66,58,66,60,56,95,82,56,30.12,30.00,11,1,20,0.28
2012-9-3,76,66,57,64,60,56,99,83,60,30.21,30.12,7,0,10,0.00
2012-9-4,73,68,64,72,64,58,99,90,82,30.13,29.85,7,1,13,0.51
2012-9-5,77,74,66,75,72,65,99,94,87,29.85,29.70,13,5,20,0.71
2012-9-6,77,68,63,69,66,62,98,92,76,29.86,29.80,7,1,10,0.00
2012-9-7,84,74,67,74,70,66,98,88,67,29.91,29.83,7,1,10,0.00
2012-9-8,81,74,62,74,70,61,98,89,67,29.89,29.59,20,6,27,0.24
2012-9-9,75,64,57,62,59,55,96,85,56,29.82,29.69,6,1,10,0.03
2012-9-10,68,60,53,56,51,45,94,73,53,30.03,29.82,15,3,21,0.00
2012-9-11,71,60,49,53,48,44,85,66,48,30.24,30.03,9,3,14,0.00
2012-9-12,76,60,49,59,52,46,93,77,52,30.32,30.24,6,0,8,0.00
2012-9-16,71,64,56,52,50,47,76,60,46,30.03,29.97,10,2,18,0.00
2012-9-17,75,61,46,59,52,44,93,74,52,30.07,30.00,8,0,12,0.00
2012-9-18,73,65,55,69,62,54,96,91,83,30.03,29.66,25,6,37,0.00
2012-9-19,71,64,53,69,54,45,96,73,46,30.15,29.67,13,4,26,0.00
2012-9-20,68,56,47,53,48,44,92,77,57,30.23,30.13,6,1,10,0.00
2012-9-21,68,55,47,58,51,46,95,87,69,30.14,30.00,4,0,8,0.00
2012-9-22,75,61,53,65,58,52,97,88,70,30.00,29.78,11,2,14,0.00
2012-9-23,70,62,51,64,53,43,96,75,47,30.06,29.77,13,3,20,0.08
2012-9-24,65,55,45,48,45,42,90,69,48,30.10,30.03,11,2,16,0.00
2012-9-25,63,54,53,49,45,44,73,72,60,30.15,30.07,7,1,20,0.00
2012-9-26,71,64,54,64,60,52,95,88,78,30.11,29.97,12,4,28,0.01
2012-9-27,71,63,54,63,56,49,95,81,54,30.21,29.97,9,2,14,0.00
2012-9-28,56,54,52,55,53,50,96,95,90,30.21,29.95,6,0,10,0.96
2012-9-29,56,55,52,54,53,50,96,94,82,29.98,29.92,7,2,13,0.04
2012-9-30,55,54,51,54,52,49,94,93,91,29.94,29.69,5,0,9,0.13
2012-10-1,67,57,48,56,51,45,92,81,66,29.92,29.68,14,5,29,0.01
2012-10-2,69,61,55,61,56,51,94,85,69,30.01,29.91,6,1,8,0.15
2012-10-3,60,60,60,58,58,58,94,94,94,30.23,30.01,4,0,6,0.02
2012-10-4,62,61,59,59,57,56,94,89,86,30.28,30.05,5,0,7,0.07
2012-10-5,76,66,58,63,58,53,87,79,55,30.05,29.88,6,2,10,0.01
2012-10-6,76,65,51,64,57,45,87,77,64,29.90,29.69,22,5,26,0.26
2012-10-7,57,50,43,49,44,40,87,81,60,30.04,29.90,6,1,25,0.17
2012-10-8,55,47,41,46,41,38,87,81,67,30.27,30.02,4,1,6,0.01
2012-10-9,58,52,47,52,47,43,86,85,77,30.27,30.09,8,1,12,0.00
2012-10-10,56,50,49,51,46,45,86,84,82,30.09,29.73,17,2,26,0.00
2012-10-11,58,49,42,47,40,38,86,72,52,30.10,29.80,9,2,20,0.00
2012-10-12,51,45,40,43,40,36,86,83,71,30.33,29.97,14,2,20,0.03
2012-10-13,44,44,44,40,40,40,86,86,86,30.43,30.31,8,2,12,0.00
2012-10-14,44,44,44,40,40,40,86,86,86,30.31,29.91,14,4,24,0.00
2012-10-15,66,48,44,61,44,40,86,86,82,29.91,29.57,18,7,30,0.10
2012-10-16,63,52,43,57,44,38,85,75,59,29.85,29.54,16,4,23,0.17
2012-10-17,62,48,36,43,39,33,86,71,40,29.97,29.85,8,0,10,0.00
2012-10-18,65,49,40,51,42,35,85,79,58,30.06,29.96,9,1,13,0.00
2012-10-19,68,60,50,63,54,45,84,80,76,30.04,29.69,10,2,21,0.60
2012-10-20,73,66,54,64,56,45,84,71,48,29.75,29.62,15,3,22,1.15
2012-10-21,63,54,44,48,44,40,86,70,52,29.87,29.75,13,2,21,0.00
2012-10-22,65,54,49,48,45,44,83,72,51,29.97,29.86,16,3,26,0.00
2012-10-23,65,56,50,50,47,43,84,71,56,30.08,29.97,8,2,13,0.00
2012-10-24,55,51,48,50,43,38,85,73,66,30.18,30.08,5,0,8,0.00
2012-10-25,63,52,43,47,41,33,88,69,34,30.27,30.18,7,1,9,0.00
2012-10-26,66,58,46,57,51,42,87,79,73,30.23,30.14,10,2,14,0.00
2012-10-27,65,56,47,58,50,41,84,81,73,30.14,29.97,5,1,13,0.00
2012-10-28,56,52,50,51,46,43,84,81,78,29.98,29.71,15,3,22,0.07
2012-10-29,62,57,50,54,49,43,78,76,75,29.71,29.11,23,7,41,1.31
2012-10-30,67,60,55,60,52,47,85,77,72,29.52,29.24,15,2,21,1.30
2012-10-31,55,52,48,49,46,41,86,79,66,29.59,29.45,10,2,15,0.02
2012-11-1,55,49,42,45,42,38,86,79,66,29.58,29.47,11,3,18,0.01
2012-11-2,51,47,44,43,40,36,86,76,66,29.58,29.50,10,3,14,0.00
2012-11-3,54,46,41,40,36,32,79,70,58,29.77,29.58,13,4,22,0.00
2012-11-4,55,43,38,41,35,32,83,73,57,29.90,29.77,10,3,15,0.00
2012-11-5,44,38,31,34,27,21,79,65,55,30.11,29.90,9,3,16,0.00
2012-11-6,43,34,27,24,21,19,74,61,43,30.20,30.11,8,1,15,0.00
2012-11-7,36,33,30,30,28,25,88,80,75,30.13,29.69,24,9,35,0.00
2012-11-8,39,36,31,35,31,26,86,82,80,29.73,29.59,23,12,36,0.01
2012-11-9,54,43,36,34,30,27,84,63,38,30.06,29.73,13,5,22,0.00
2012-11-10,56,44,39,40,33,28,85,63,49,30.42,30.06,9,0,13,0.00
2012-11-11,63,52,39,49,45,35,85,77,56,30.47,30.38,15,5,20,0.00
2012-11-12,68,58,51,57,51,44,85,78,63,30.43,30.27,17,6,23,0.00